TimePDT,TemperatureF,Dew PointF,Humidity,Sea Level PressureIn,VisibilityMPH,Wind Direction,Wind SpeedMPH,Gust SpeedMPH,PrecipitationIn,Events,Conditions,WindDirDegrees,DateUTC
12:15 AM,55.4,33.8,44,29.88,10.0,SSE,8.1,16.1,N/A,,Overcast,150,2013-05-06 07:15:00
12:35 AM,51.8,39.2,62,29.89,10.0,SSE,11.5,-,N/A,,Mostly Cloudy,150,2013-05-06 07:35:00
12:55 AM,51.8,37.4,58,29.89,10.0,SE,8.1,-,N/A,,Clear,140,2013-05-06 07:55:00
1:15 AM,50.0,37.4,62,29.89,10.0,SSE,10.4,-,N/A,,Clear,150,2013-05-06 08:15:00
1:35 AM,48.2,37.4,66,29.89,10.0,SSE,8.1,-,N/A,,Clear,150,2013-05-06 08:35:00
1:55 AM,46.4,37.4,71,29.89,10.0,SE,4.6,-,N/A,,Partly Cloudy,140,2013-05-06 08:55:00
2:15 AM,44.6,35.6,71,29.88,10.0,ESE,4.6,-,N/A,,Clear,110,2013-05-06 09:15:00
2:35 AM,42.8,35.6,76,29.88,10.0,West,4.6,-,N/A,,Clear,260,2013-05-06 09:35:00
2:55 AM,39.2,33.8,81,29.88,10.0,NNW,3.5,-,N/A,,Clear,330,2013-05-06 09:55:00
3:15 AM,37.4,33.8,87,29.88,10.0,North,8.1,-,N/A,,Clear,350,2013-05-06 10:15:00
3:35 AM,39.2,35.6,87,29.88,10.0,NNW,6.9,-,N/A,,Clear,340,2013-05-06 10:35:00
3:55 AM,39.2,33.8,81,29.87,10.0,North,8.1,-,N/A,,Clear,350,2013-05-06 10:55:00
4:15 AM,41.0,35.6,81,29.88,10.0,NNW,6.9,-,N/A,,Clear,330,2013-05-06 11:15:00
4:35 AM,39.2,33.8,81,29.88,10.0,WNW,9.2,-,N/A,,Clear,300,2013-05-06 11:35:00
4:55 AM,39.2,33.8,81,29.88,10.0,WNW,4.6,-,N/A,,Clear,300,2013-05-06 11:55:00
5:15 AM,37.4,33.8,87,29.88,10.0,North,6.9,-,N/A,,Clear,360,2013-05-06 12:15:00
5:35 AM,37.4,32.0,81,29.88,10.0,NNE,5.8,-,N/A,,Clear,20,2013-05-06 12:35:00
5:55 AM,35.6,32.0,87,29.88,10.0,North,6.9,-,N/A,,Clear,10,2013-05-06 12:55:00
6:15 AM,35.6,32.0,87,29.89,10.0,NE,4.6,-,N/A,,Clear,40,2013-05-06 13:15:00
6:35 AM,37.4,33.8,87,29.90,10.0,North,3.5,-,N/A,,Clear,10,2013-05-06 13:35:00
6:55 AM,41.0,35.6,81,29.90,10.0,North,3.5,-,N/A,,Clear,10,2013-05-06 13:55:00
7:15 AM,44.6,37.4,76,29.90,10.0,NNW,3.5,-,N/A,,Clear,330,2013-05-06 14:15:00
7:35 AM,48.2,37.4,66,29.90,10.0,Calm,Calm,-,N/A,,Clear,0,2013-05-06 14:35:00
7:55 AM,51.8,37.4,58,29.90,10.0,Calm,Calm,-,N/A,,Clear,0,2013-05-06 14:55:00
8:15 AM,53.6,39.2,58,29.90,10.0,Calm,Calm,-,N/A,,Clear,0,2013-05-06 15:15:00
8:35 AM,55.4,39.2,54,29.90,9.0,NNE,5.8,-,N/A,,Clear,30,2013-05-06 15:35:00
8:55 AM,55.4,39.2,54,29.90,10.0,ESE,5.8,-,N/A,,Clear,120,2013-05-06 15:55:00
9:15 AM,55.4,39.2,54,29.90,10.0,SE,4.6,-,N/A,,Clear,140,2013-05-06 16:15:00
9:35 AM,59.0,37.4,45,29.89,7.0,North,6.9,-,N/A,,Clear,360,2013-05-06 16:35:00
9:55 AM,60.8,37.4,42,29.89,7.0,NNW,6.9,-,N/A,,Clear,330,2013-05-06 16:55:00
10:15 AM,62.6,37.4,39,29.89,10.0,Calm,Calm,-,N/A,,Clear,0,2013-05-06 17:15:00
10:35 AM,62.6,37.4,39,29.88,10.0,NE,3.5,-,N/A,,Clear,40,2013-05-06 17:35:00
10:55 AM,62.6,37.4,39,29.88,10.0,WNW,4.6,-,N/A,,Clear,290,2013-05-06 17:55:00
11:15 AM,66.2,37.4,35,29.88,10.0,NNE,6.9,-,N/A,,Clear,20,2013-05-06 18:15:00
11:35 AM,64.4,39.2,40,29.87,10.0,SE,4.6,-,N/A,,Clear,140,2013-05-06 18:35:00
11:55 AM,66.2,39.2,37,29.86,10.0,NE,5.8,-,N/A,,Partly Cloudy,50,2013-05-06 18:55:00
12:15 PM,64.4,35.6,34,29.86,10.0,North,9.2,-,N/A,,Mostly Cloudy,360,2013-05-06 19:15:00
12:35 PM,64.4,37.4,37,29.85,10.0,North,9.2,-,N/A,,Mostly Cloudy,10,2013-05-06 19:35:00
12:55 PM,64.4,37.4,37,29.84,10.0,North,5.8,-,N/A,,Mostly Cloudy,360,2013-05-06 19:55:00
1:15 PM,64.4,37.4,37,29.84,10.0,SE,8.1,-,N/A,,Mostly Cloudy,140,2013-05-06 20:15:00
1:35 PM,59.0,42.8,55,29.85,10.0,SSE,16.1,23.0,N/A,,Overcast,150,2013-05-06 20:35:00
1:55 PM,55.4,42.8,63,29.86,10.0,SSE,13.8,26.5,N/A,Thunderstorm,Overcast,160,2013-05-06 20:55:00
2:15 PM,55.4,44.6,67,29.86,10.0,South,19.6,24.2,N/A,,Mostly Cloudy,190,2013-05-06 21:15:00
2:35 PM,57.2,44.6,63,29.88,10.0,South,12.7,-,N/A,,Mostly Cloudy,190,2013-05-06 21:35:00
2:55 PM,53.6,46.4,77,29.88,10.0,SSW,12.7,-,N/A,,Overcast,200,2013-05-06 21:55:00
3:15 PM,59.0,46.4,63,29.88,10.0,South,13.8,-,N/A,,Mostly Cloudy,190,2013-05-06 22:15:00
3:55 PM,57.2,46.4,67,29.88,10.0,WSW,6.9,-,N/A,Thunderstorm,Overcast,240,2013-05-06 22:55:00
4:15 PM,57.2,44.6,63,29.88,10.0,WNW,6.9,-,N/A,,Mostly Cloudy,290,2013-05-06 23:15:00
4:35 PM,55.4,46.4,72,29.87,10.0,Calm,Calm,-,N/A,,Clear,0,2013-05-06 23:35:00
4:55 PM,55.4,46.4,72,29.86,10.0,Calm,Calm,-,N/A,,Clear,0,2013-05-06 23:55:00
5:15 PM,55.4,44.6,67,29.86,10.0,Calm,Calm,-,N/A,,Clear,0,2013-05-07 00:15:00
5:35 PM,57.2,44.6,63,29.85,10.0,Calm,Calm,-,N/A,,Clear,0,2013-05-07 00:35:00
5:55 PM,59.0,42.8,55,29.85,10.0,SSW,4.6,-,N/A,,Clear,210,2013-05-07 00:55:00
6:15 PM,60.8,42.8,52,29.85,10.0,West,8.1,-,N/A,,Clear,270,2013-05-07 01:15:00
6:35 PM,59.0,42.8,55,29.86,10.0,West,3.5,-,N/A,,Mostly Cloudy,270,2013-05-07 01:35:00
6:55 PM,57.2,42.8,59,29.85,10.0,NW,4.6,-,N/A,,Overcast,320,2013-05-07 01:55:00
7:15 PM,53.6,46.4,77,29.87,10.0,NNE,3.5,-,N/A,,Overcast,30,2013-05-07 02:15:00
7:35 PM,51.8,44.6,76,29.90,6.0,East,16.1,29.9,N/A,Thunderstorm,Thunderstorm,90,2013-05-07 02:35:00
7:55 PM,48.2,44.6,87,29.91,9.0,NNE,4.6,-,N/A,Thunderstorm,Thunderstorm,30,2013-05-07 02:55:00
8:15 PM,48.2,44.6,87,29.90,10.0,SE,9.2,-,N/A,,Overcast,140,2013-05-07 03:15:00
8:35 PM,48.2,44.6,87,29.89,10.0,South,8.1,-,N/A,,Overcast,170,2013-05-07 03:35:00
8:55 PM,48.2,44.6,87,29.89,10.0,Calm,Calm,-,N/A,,Overcast,0,2013-05-07 03:55:00
9:15 PM,46.4,44.6,93,29.91,10.0,North,4.6,-,N/A,,Overcast,350,2013-05-07 04:15:00
9:35 PM,46.4,44.6,93,29.93,10.0,SE,9.2,-,N/A,,Overcast,130,2013-05-07 04:35:00
9:55 PM,48.2,44.6,87,29.94,10.0,SE,13.8,-,N/A,,Overcast,140,2013-05-07 04:55:00
10:15 PM,48.2,44.6,87,29.93,10.0,SE,16.1,-,N/A,,Overcast,130,2013-05-07 05:15:00
10:35 PM,48.2,44.6,87,29.94,10.0,SE,19.6,24.2,N/A,,Overcast,130,2013-05-07 05:35:00
10:55 PM,48.2,44.6,87,29.95,10.0,SE,12.7,-,N/A,,Overcast,140,2013-05-07 05:55:00
11:15 PM,48.2,44.6,87,29.96,10.0,SSE,12.7,19.6,N/A,,Overcast,150,2013-05-07 06:15:00
11:35 PM,48.2,44.6,87,29.96,10.0,SSE,10.4,-,N/A,,Overcast,160,2013-05-07 06:35:00
11:55 PM,48.2,44.6,87,29.97,10.0,SSE,8.1,-,N/A,,Overcast,160,2013-05-07 06:55:00